Date String (YYYY-MM-DD hh:mm:ss) UTC,Instrument flags,Ambient pressure (hPa),Sample flow (lpm),Bypass flow (lpm),Sample temperature (°C),Ambient temperature (°C),ASC tube jacket temperature (°C),LED temperature (°C),Box temperature (°C),Sample RH (%),Span deviation,Mass concentration (μg/m³),Mass concentration (μg/m³),Mass concentration (μg/m³)
DateTimeUTC,F1_M11,P_M11,Q1_M11,Q2_M11,T1_M11,T2_M11,T3_M11,T4_M11,T5_M11,U1_M11,ZSPAN_M11,X0_M11,X2_M11,X1_M11
2022-04-03 18:00:00,,0825.5,5.00,0.00,26.1,25.3,00.0,35.0,27.9,11.6,0000.0,0015.57,0004.82,0003.01
2022-04-03 18:01:00,,0825.5,4.99,0.00,26.1,25.3,00.0,35.0,27.9,11.6,0000.0,0015.88,0004.79,0003.03
2022-04-03 18:02:00,,0825.5,5.00,0.00,26.1,25.4,00.0,35.0,28.0,11.6,0000.0,0015.99,0004.76,0003.05
2022-04-03 18:03:00,,0825.5,5.00,0.00,26.1,25.4,00.0,35.0,28.0,11.6,0000.0,0016.21,0004.73,0003.06
2022-04-03 18:04:00,,0825.5,5.00,0.00,26.1,25.5,00.0,35.0,28.0,11.6,0000.0,0016.43,0004.73,0003.07
2022-04-03 18:05:00,,0825.5,5.00,0.00,26.2,25.5,00.0,35.0,28.0,11.8,0000.0,0017.19,0004.73,0003.08
2022-04-03 18:06:00,,0825.4,5.00,0.00,26.2,25.5,00.0,35.0,28.0,11.8,0000.0,0016.66,0004.69,0003.08
2022-04-03 18:07:00,,0825.4,5.01,0.00,26.2,25.5,00.0,35.0,28.0,11.6,0000.0,0016.40,0004.73,0003.08
2022-04-03 18:08:00,,0825.4,5.00,0.00,26.1,25.5,00.0,35.0,27.9,11.6,0000.0,0016.69,0004.66,0003.09
2022-04-03 18:09:00,,0825.4,5.00,0.00,26.1,25.4,00.0,35.0,27.9,11.6,0000.0,0017.47,0004.68,0003.08
2022-04-03 18:10:00,,0825.4,4.99,0.00,26.1,25.4,00.0,35.0,27.9,11.7,0000.0,0017.79,0004.66,0003.11
2022-04-03 18:11:00,,0825.3,5.01,0.00,26.1,25.4,00.0,35.0,27.9,11.7,0000.0,0017.87,0004.71,0003.12
2022-04-03 18:12:00,,0825.3,5.01,0.00,26.1,25.3,00.0,35.0,27.9,11.7,0000.0,0018.23,0004.73,0003.14
2022-04-03 18:13:00,,0825.3,5.00,0.00,26.0,25.3,00.0,35.0,27.8,11.7,0000.0,0017.84,0004.80,0003.15
2022-04-03 18:14:00,,0825.3,5.00,0.00,26.0,25.2,00.0,35.0,27.8,11.7,0000.0,0016.87,0004.88,0003.16
2022-04-03 18:15:00,,0825.3,4.99,0.00,26.0,25.3,00.0,35.0,27.8,11.8,0000.0,0016.64,0004.91,0003.16
2022-04-03 18:16:00,,0825.3,5.00,0.00,26.0,25.2,00.0,35.0,27.7,11.8,0000.0,0016.81,0004.92,0003.16
2022-04-03 18:17:00,,0825.3,5.03,0.00,26.0,25.2,00.0,35.0,27.8,11.8,0000.0,0016.99,0004.91,0003.16
2022-04-03 18:18:00,,0825.2,4.99,0.00,26.0,25.2,00.0,35.0,27.7,11.9,0000.0,0016.90,0004.89,0003.17
2022-04-03 18:19:00,,0825.2,5.00,0.00,26.0,25.2,00.0,35.0,27.7,11.8,0000.0,0016.62,0004.91,0003.19
2022-04-03 18:20:00,,0825.2,5.00,0.00,26.0,25.2,00.0,35.0,27.8,11.8,0000.0,0016.19,0004.92,0003.21
2022-04-03 18:21:00,,0825.3,5.00,0.00,26.0,25.3,00.0,35.0,27.8,12.1,0000.0,0016.66,0004.98,0003.22
2022-04-03 18:22:00,,0825.2,5.00,0.00,26.0,25.3,00.0,35.0,27.8,12.1,0000.0,0015.71,0004.92,0003.21
2022-04-03 18:23:00,,0825.2,5.00,0.00,26.0,25.3,00.0,35.0,27.7,12.0,0000.0,0015.33,0004.91,0003.22
2022-04-03 18:24:00,,0825.2,5.00,0.00,26.0,25.2,00.0,35.0,27.7,12.0,0000.0,0015.40,0004.95,0003.22
2022-04-03 18:25:00,,0825.2,5.00,0.00,25.9,25.1,00.0,34.9,27.7,12.0,0000.0,0015.68,0004.98,0003.25
2022-04-03 18:26:00,,0825.2,5.00,0.00,25.9,25.1,00.0,34.9,27.7,12.2,0000.0,0016.34,0005.02,0003.26
2022-04-03 18:27:00,,0825.2,5.00,0.00,25.9,25.1,00.0,34.9,27.7,12.1,0000.0,0016.01,0005.05,0003.28
2022-04-03 18:28:00,,0825.2,5.00,0.00,25.9,25.1,00.0,34.9,27.7,12.0,0000.0,0016.49,0005.13,0003.30
2022-04-03 18:29:00,,0825.2,5.01,0.00,25.9,25.1,00.0,34.9,27.7,12.2,0000.0,0016.74,0005.21,0003.31
2022-04-03 18:30:00,,0825.3,5.00,0.00,25.9,25.1,00.0,34.9,27.7,12.3,0000.0,0016.80,0005.25,0003.30
2022-04-03 18:31:00,,0825.3,5.00,0.00,25.9,25.1,00.0,34.9,27.7,12.3,0000.0,0017.43,0005.27,0003.30
2022-04-03 18:32:00,,0825.3,5.01,0.00,25.9,25.2,00.0,34.9,27.7,12.3,0000.0,0018.51,0005.28,0003.31
2022-04-03 18:33:00,,0825.2,5.00,0.00,25.9,25.1,00.0,34.9,27.6,12.0,0000.0,0018.44,0005.29,0003.32
2022-04-03 18:34:00,,0825.3,5.01,0.00,25.9,25.0,00.0,34.9,27.6,12.0,0000.0,0018.79,0005.37,0003.33
2022-04-03 18:35:00,,0825.2,5.00,0.00,25.9,25.0,00.0,34.9,27.6,12.0,0000.0,0018.56,0005.41,0003.34
2022-04-03 18:36:00,,0825.2,5.00,0.00,25.8,25.0,00.0,34.9,27.6,12.0,0000.0,0018.89,0005.38,0003.34
2022-04-03 18:37:00,,0825.2,5.01,0.00,25.8,24.9,00.0,34.9,27.6,12.1,0000.0,0018.96,0005.35,0003.34
2022-04-03 18:38:00,,0825.2,5.00,0.00,25.8,24.9,00.0,34.9,27.6,12.2,0000.0,0019.38,0005.36,0003.35
2022-04-03 18:39:00,,0825.2,4.99,0.00,25.8,24.9,00.0,34.8,27.6,12.1,0000.0,0018.17,0005.37,0003.36
2022-04-03 18:40:00,,0825.2,4.99,0.00,25.8,24.8,00.0,34.8,27.5,12.2,0000.0,0018.98,0005.32,0003.36
2022-04-03 18:41:00,,0825.2,5.00,0.00,25.7,24.8,00.0,34.8,27.5,12.1,0000.0,0019.83,0005.32,0003.37
2022-04-03 18:42:00,,0825.2,5.00,0.00,25.7,24.8,00.0,34.8,27.5,12.1,0000.0,0019.23,0005.28,0003.38
2022-04-03 18:43:00,,0825.2,5.00,0.00,25.7,24.8,00.0,34.8,27.5,12.2,0000.0,0017.51,0005.27,0003.39
2022-04-03 18:44:00,,0825.2,5.01,0.00,25.7,24.9,00.0,34.8,27.5,12.1,0000.0,0018.45,0005.28,0003.40
2022-04-03 18:45:00,,0825.1,5.01,0.00,25.7,24.9,00.0,34.8,27.5,12.0,0000.0,0018.94,0005.24,0003.41
2022-04-03 18:46:00,,0825.1,5.01,0.00,25.7,24.9,00.0,34.8,27.5,12.3,0000.0,0019.83,0005.19,0003.41
2022-04-03 18:47:00,,0825.1,4.98,0.00,25.7,25.0,00.0,34.8,27.5,12.1,0000.0,0019.85,0005.17,0003.42
2022-04-03 18:48:00,,0825.1,4.99,0.00,25.7,25.0,00.0,34.8,27.5,12.2,0000.0,0019.62,0005.18,0003.43
2022-04-03 18:49:00,,0825.1,5.01,0.00,25.7,24.9,00.0,34.8,27.5,12.0,0000.0,0019.07,0005.22,0003.44
2022-04-03 18:50:00,,0825.1,5.00,0.00,25.7,24.9,00.0,34.8,27.5,11.9,0000.0,0018.47,0005.17,0003.45
2022-04-03 18:51:00,,0825.2,5.01,0.00,25.7,24.9,00.0,34.8,27.5,11.8,0000.0,0018.23,0005.18,0003.45
2022-04-03 18:52:00,,0825.2,5.00,0.00,25.7,24.9,00.0,34.8,27.5,12.0,0000.0,0017.98,0005.19,0003.46
2022-04-03 18:53:00,,0825.2,5.00,0.00,25.7,24.9,00.0,34.7,27.6,12.0,0000.0,0018.20,0005.23,0003.47
2022-04-03 18:54:00,,0825.2,5.00,0.00,25.7,25.0,00.0,34.7,27.6,11.7,0000.0,0019.07,0005.29,0003.48
2022-04-03 18:55:00,,0825.2,4.98,0.00,25.7,24.9,00.0,34.7,27.6,11.8,0000.0,0019.85,0005.31,0003.50
2022-04-03 18:56:00,,0825.3,5.01,0.00,25.7,25.0,00.0,34.7,27.6,11.9,0000.0,0020.41,0005.33,0003.51
2022-04-03 18:57:00,,0825.3,5.00,0.00,25.7,25.0,00.0,34.7,27.6,11.8,0000.0,0019.55,0005.36,0003.52
2022-04-03 18:58:00,,0825.3,5.00,0.00,25.7,25.1,00.0,34.7,27.6,11.8,0000.0,0019.32,0005.36,0003.52
2022-04-03 18:59:00,,0825.3,5.01,0.00,25.8,25.1,00.0,34.7,27.6,12.0,0000.0,0019.91,0005.39,0003.51
